• In Uzbekistan
  • List of Countries
  • For 7 days
  • Water Temperature
  • Satellite Maps
  • Weather Map
  • Weather Widgets
  • user-avatar
    Login

    Hourly Weather Sulukta

    Today, 23 February, Saturday

    Time Temperature Precipitation Wind Pressure Humidity
    00:00 -2°C° 0 mm 3 mps 650 mmHg 28%
    01:00 -2°C° 0 mm 3 mps 650 mmHg 28%
    02:00 -2°C° 0 mm 3 mps 650 mmHg 27%
    03:00 -2°C° 0 mm 3 mps 650 mmHg 26%
    04:00 -2°C° 0 mm 3 mps 649 mmHg 26%
    05:00 -4°C° 0 mm 3 mps 649 mmHg 25%
    06:00 -2°C° 0 mm 3 mps 649 mmHg 26%
    07:00 -2°C° 0 mm 3 mps 649 mmHg 28%
    08:00 -2°C° 0 mm 3 mps 649 mmHg 29%
    09:00 0°C° 0 mm 3 mps 649 mmHg 36%
    10:00 +2°C° 0 mm 2 mps 649 mmHg 42%
    11:00 +5°C° 0 mm 2 mps 649 mmHg 48%
    12:00 +5°C° 0 mm 2 mps 649 mmHg 47%
    13:00 +5°C° 0 mm 2 mps 649 mmHg 45%
    14:00 +5°C° 0 mm 2 mps 649 mmHg 44%
    15:00 +5°C° 0 mm 2 mps 649 mmHg 44%
    16:00 +5°C° 0 mm 1 mps 649 mmHg 45%
    17:00 +4°C° 0 mm 1 mps 648 mmHg 45%
    18:00 +4°C° 0 mm 1 mps 649 mmHg 44%
    19:00 +2°C° 0 mm 2 mps 649 mmHg 43%
    20:00 +1°C° 0 mm 2 mps 649 mmHg 42%
    21:00 +1°C° 0 mm 2 mps 649 mmHg 40%
    22:00 0°C° 0 mm 3 mps 649 mmHg 38%
    23:00 -1°C° 0 mm 3 mps 649 mmHg 37%

    Tomorrow, 24 February, Sunday

    Time Temperature Precipitation Wind Pressure Humidity
    00:00 -1°C° 0 mm 3 mps 649 mmHg 35%
    01:00 -1°C° 0 mm 3 mps 649 mmHg 33%
    02:00 -1°C° 0 mm 3 mps 649 mmHg 32%
    03:00 -1°C° 0 mm 3 mps 649 mmHg 31%
    04:00 -2°C° 0 mm 3 mps 649 mmHg 31%
    05:00 -2°C° 0 mm 3 mps 649 mmHg 30%
    06:00 -2°C° 0 mm 3 mps 649 mmHg 31%
    07:00 -1°C° 0 mm 3 mps 649 mmHg 32%
    08:00 -1°C° 0 mm 3 mps 649 mmHg 32%
    09:00 0°C° 0 mm 3 mps 649 mmHg 32%
    10:00 +3°C° 0 mm 2 mps 650 mmHg 31%
    11:00 +4°C° 0 mm 2 mps 650 mmHg 30%
    12:00 +4°C° 0 mm 2 mps 650 mmHg 31%
    13:00 +5°C° 0 mm 2 mps 649 mmHg 32%
    14:00 +5°C° 0 mm 2 mps 649 mmHg 34%
    15:00 +4°C° 0 mm 2 mps 649 mmHg 37%
    16:00 +5°C° 0 mm 1 mps 649 mmHg 40%
    17:00 +4°C° 0 mm 1 mps 649 mmHg 43%
    18:00 +4°C° 0 mm 1 mps 649 mmHg 44%
    19:00 +3°C° 0 mm 1 mps 649 mmHg 46%
    20:00 +2°C° 0 mm 1 mps 649 mmHg 48%
    21:00 +2°C° 0 mm 1 mps 649 mmHg 48%
    22:00 +2°C° 0 mm 1 mps 649 mmHg 49%
    23:00 +1°C° 0 mm 1 mps 649 mmHg 49%

    Day after tomorrow, 25 February, Monday

    Time Temperature Precipitation Wind Pressure Humidity
    00:00 +1°C° 0 mm 1 mps 649 mmHg 48%
    01:00 +1°C° 0 mm 1 mps 649 mmHg 48%
    02:00 -2°C° 0 mm 2 mps 649 mmHg 47%
    03:00 -2°C° 0 mm 2 mps 649 mmHg 46%
    04:00 -2°C° 0 mm 2 mps 649 mmHg 45%
    05:00 -2°C° 0 mm 2 mps 649 mmHg 44%
    06:00 -2°C° 0 mm 2 mps 649 mmHg 43%
    07:00 -2°C° 0 mm 2 mps 649 mmHg 42%
    08:00 -2°C° 0 mm 2 mps 649 mmHg 42%
    09:00 -1°C° 0 mm 2 mps 649 mmHg 40%
    10:00 +2°C° 0 mm 2 mps 649 mmHg 38%
    11:00 +3°C° 0 mm 2 mps 649 mmHg 36%
    12:00 +3°C° 0 mm 2 mps 649 mmHg 38%
    13:00 +4°C° 0 mm 2 mps 648 mmHg 39%
    14:00 +4°C° 0 mm 2 mps 648 mmHg 41%
    15:00 +4°C° 0 mm 2 mps 648 mmHg 43%
    16:00 +4°C° 0 mm 2 mps 648 mmHg 45%
    17:00 +3°C° 0 mm 2 mps 647 mmHg 47%
    18:00 +3°C° 0 mm 1 mps 648 mmHg 49%
    19:00 +3°C° 0 mm 1 mps 648 mmHg 51%
    20:00 +2°C° 0 mm 1 mps 648 mmHg 53%
    21:00 -1°C° 0 mm 2 mps 648 mmHg 51%
    22:00 -1°C° 0 mm 2 mps 648 mmHg 49%
    23:00 -1°C° 0 mm 2 mps 648 mmHg 47%

    26 February, Tuesday

    Time Temperature Precipitation Wind Pressure Humidity
    00:00 -2°C° 0 mm 2 mps 648 mmHg 46%
    01:00 -2°C° 0 mm 2 mps 648 mmHg 44%
    02:00 -2°C° 0 mm 2 mps 647 mmHg 42%
    03:00 -2°C° 0 mm 2 mps 647 mmHg 41%
    04:00 -2°C° 0 mm 3 mps 647 mmHg 40%
    05:00 -4°C° 0 mm 3 mps 647 mmHg 40%
    06:00 -2°C° 0 mm 3 mps 647 mmHg 39%
    07:00 -2°C° 0 mm 3 mps 647 mmHg 38%
    08:00 -2°C° 0 mm 3 mps 647 mmHg 37%
    09:00 -1°C° 0 mm 2 mps 647 mmHg 37%
    10:00 +2°C° 0 mm 2 mps 647 mmHg 36%
    11:00 +3°C° 0 mm 2 mps 647 mmHg 35%
    12:00 +3°C° 0 mm 2 mps 647 mmHg 37%
    13:00 +3°C° 0 mm 3 mps 647 mmHg 38%
    14:00 +3°C° 0 mm 3 mps 646 mmHg 40%
    15:00 +3°C° 0 mm 3 mps 646 mmHg 42%
    16:00 +4°C° 0 mm 2 mps 646 mmHg 44%
    17:00 +3°C° 0 mm 2 mps 646 mmHg 45%
    18:00 +3°C° 0 mm 2 mps 646 mmHg 47%
    19:00 +2°C° 0 mm 2 mps 646 mmHg 49%
    20:00 +1°C° 0 mm 2 mps 646 mmHg 51%
    21:00 +1°C° 0 mm 2 mps 646 mmHg 49%
    22:00 -1°C° 0 mm 3 mps 646 mmHg 47%
    23:00 -1°C° 0 mm 3 mps 646 mmHg 44%

    27 February, Wednesday

    Time Temperature Precipitation Wind Pressure Humidity
    00:00 -2°C° 0 mm 3 mps 646 mmHg 43%
    01:00 -2°C° 0 mm 3 mps 646 mmHg 41%
    02:00 -2°C° 0 mm 3 mps 645 mmHg 40%
    03:00 -2°C° 0 mm 3 mps 645 mmHg 39%
    04:00 -4°C° 0 mm 3 mps 645 mmHg 38%
    05:00 -4°C° 0 mm 3 mps 645 mmHg 37%
    06:00 -2°C° 0 mm 3 mps 645 mmHg 36%
    07:00 -2°C° 0 mm 3 mps 645 mmHg 35%
    08:00 -2°C° 0 mm 3 mps 645 mmHg 34%
    09:00 0°C° 0 mm 3 mps 645 mmHg 33%
    10:00 +1°C° 0 mm 3 mps 644 mmHg 31%
    11:00 +2°C° 0 mm 3 mps 644 mmHg 30%
    12:00 +3°C° 0 mm 4 mps 644 mmHg 31%
    13:00 +4°C° 0 mm 4 mps 644 mmHg 31%
    14:00 +4°C° 0 mm 4 mps 643 mmHg 31%
    15:00 +4°C° 0 mm 4 mps 643 mmHg 33%
    16:00 +4°C° 0 mm 4 mps 643 mmHg 35%
    17:00 +3°C° 0 mm 4 mps 643 mmHg 37%
    18:00 +1°C° 0 mm 4 mps 643 mmHg 37%
    19:00 0°C° 0 mm 4 mps 643 mmHg 37%
    20:00 -1°C° 0 mm 4 mps 643 mmHg 36%
    21:00 -1°C° 0 mm 4 mps 643 mmHg 34%
    22:00 -1°C° 0 mm 4 mps 643 mmHg 33%
    23:00 -2°C° 0 mm 4 mps 643 mmHg 31%

    28 February, Thursday

    Time Temperature Precipitation Wind Pressure Humidity
    00:00 -1°C° 0 mm 5 mps 642 mmHg 31%
    01:00 -1°C° 0 mm 5 mps 642 mmHg 30%
    02:00 -1°C° 0 mm 5 mps 641 mmHg 30%
    03:00 -1°C° 0 mm 5 mps 641 mmHg 31%
    04:00 -1°C° 0 mm 5 mps 640 mmHg 32%
    05:00 -2°C° 0 mm 5 mps 639 mmHg 32%
    06:00 -1°C° 0 mm 5 mps 639 mmHg 32%
    07:00 -1°C° 0 mm 5 mps 639 mmHg 31%
    08:00 -1°C° 0 mm 5 mps 638 mmHg 31%
    09:00 +1°C° 0 mm 5 mps 638 mmHg 30%
    10:00 +2°C° 0 mm 5 mps 638 mmHg 28%
    11:00 +5°C° 0 mm 5 mps 638 mmHg 27%
    12:00 +5°C° 0 mm 4 mps 639 mmHg 28%
    13:00 +5°C° 0 mm 4 mps 639 mmHg 30%
    14:00 +7°C° 0 mm 3 mps 639 mmHg 31%
    15:00 +5°C° 0 mm 3 mps 639 mmHg 33%
    16:00 +6°C° 0 mm 2 mps 639 mmHg 36%
    17:00 +5°C° 0 mm 2 mps 639 mmHg 38%
    18:00 +5°C° 0 mm 1 mps 640 mmHg 41%
    19:00 +5°C° 0 mm 1 mps 640 mmHg 44%
    20:00 +4°C° 0 mm 1 mps 640 mmHg 47%
    21:00 +4°C° 0 mm 1 mps 640 mmHg 47%
    22:00 +4°C° 0 mm 1 mps 641 mmHg 47%
    23:00 +4°C° 0 mm 1 mps 641 mmHg 47%
    Show more